owner,sensor,date,latitude,longitude,air_pressure(mBar),qcFlag 
DISL,ioos:station:DISL:MHPA:1,2019-09-01T00:00:00Z,30.6671,-87.9365,1015.917,11111222 
DISL,ioos:station:DISL:MHPA:1,2019-09-01T01:00:00Z,30.6671,-87.9365,1016.255639,11111222 
DISL,ioos:station:DISL:MHPA:1,2019-09-01T02:00:00Z,30.6671,-87.9365,1015.917,11111222 
DISL,ioos:station:DISL:MHPA:1,2019-09-01T03:00:00Z,30.6671,-87.9365,1016.932917,11111222 
DISL,ioos:station:DISL:MHPA:1,2019-09-01T04:00:00Z,30.6671,-87.9365,1016.932917,11111222 
DISL,ioos:station:DISL:MHPA:1,2019-09-01T05:00:00Z,30.6671,-87.9365,1016.932917,11111222 
DISL,ioos:station:DISL:MHPA:1,2019-09-01T06:00:00Z,30.6671,-87.9365,1015.578361,11111222 
DISL,ioos:station:DISL:MHPA:1,2019-09-01T07:00:00Z,30.6671,-87.9365,1015.239722,11111222 
DISL,ioos:station:DISL:MHPA:1,2019-09-01T08:00:00Z,30.6671,-87.9365,1015.578361,11111222 
DISL,ioos:station:DISL:MHPA:1,2019-09-01T09:00:00Z,30.6671,-87.9365,1015.578361,11111222 
DISL,ioos:station:DISL:MHPA:1,2019-09-01T10:00:00Z,30.6671,-87.9365,1015.917,11111222 
DISL,ioos:station:DISL:MHPA:1,2019-09-01T11:00:00Z,30.6671,-87.9365,1016.594278,11111222 
DISL,ioos:station:DISL:MHPA:1,2019-09-01T12:00:00Z,30.6671,-87.9365,1017.610195,11111222 
DISL,ioos:station:DISL:MHPA:1,2019-09-01T13:00:00Z,30.6671,-87.9365,1017.610195,11111222 
DISL,ioos:station:DISL:MHPA:1,2019-09-01T14:00:00Z,30.6671,-87.9365,1017.948834,11111222 
DISL,ioos:station:DISL:MHPA:1,2019-09-01T15:00:00Z,30.6671,-87.9365,1017.948834,11111222 
DISL,ioos:station:DISL:MHPA:1,2019-09-01T16:00:00Z,30.6671,-87.9365,1017.610195,11111222 
DISL,ioos:station:DISL:MHPA:1,2019-09-01T17:00:00Z,30.6671,-87.9365,1017.948834,11111222 
DISL,ioos:station:DISL:MHPA:1,2019-09-01T18:00:00Z,30.6671,-87.9365,1016.594278,11111222 
DISL,ioos:station:DISL:MHPA:1,2019-09-01T19:00:00Z,30.6671,-87.9365,1016.594278,11111222 
DISL,ioos:station:DISL:MHPA:1,2019-09-01T20:00:00Z,30.6671,-87.9365,1016.255639,11111222 
DISL,ioos:station:DISL:MHPA:1,2019-09-01T21:00:00Z,30.6671,-87.9365,1015.578361,11111222 
DISL,ioos:station:DISL:MHPA:1,2019-09-01T22:00:00Z,30.6671,-87.9365,1015.578361,11111222 
DISL,ioos:station:DISL:MHPA:1,2019-09-01T23:00:00Z,30.6671,-87.9365,1015.578361,11111222 
DISL,ioos:station:DISL:MHPA:1,2019-09-02T00:00:00Z,30.6671,-87.9365,1014.901083,11111222 
DISL,ioos:station:DISL:MHPA:1,2019-09-02T01:00:00Z,30.6671,-87.9365,1015.578361,11111222 
DISL,ioos:station:DISL:MHPA:1,2019-09-02T02:00:00Z,30.6671,-87.9365,1016.255639,11111222 
DISL,ioos:station:DISL:MHPA:1,2019-09-02T03:00:00Z,30.6671,-87.9365,1016.255639,11111222 
DISL,ioos:station:DISL:MHPA:1,2019-09-02T04:00:00Z,30.6671,-87.9365,1015.578361,11111222 
DISL,ioos:station:DISL:MHPA:1,2019-09-02T05:00:00Z,30.6671,-87.9365,1015.578361,11111222 
DISL,ioos:station:DISL:MHPA:1,2019-09-02T06:00:00Z,30.6671,-87.9365,1014.901083,11111222 
DISL,ioos:station:DISL:MHPA:1,2019-09-02T07:00:00Z,30.6671,-87.9365,1014.562444,11111222 
DISL,ioos:station:DISL:MHPA:1,2019-09-02T08:00:00Z,30.6671,-87.9365,1014.562444,11111222 
DISL,ioos:station:DISL:MHPA:1,2019-09-02T09:00:00Z,30.6671,-87.9365,1015.239722,11111222 
DISL,ioos:station:DISL:MHPA:1,2019-09-02T10:00:00Z,30.6671,-87.9365,1015.239722,11111222 
DISL,ioos:station:DISL:MHPA:1,2019-09-02T11:00:00Z,30.6671,-87.9365,1014.901083,11111222 
DISL,ioos:station:DISL:MHPA:1,2019-09-02T12:00:00Z,30.6671,-87.9365,1015.578361,11111222 
DISL,ioos:station:DISL:MHPA:1,2019-09-02T13:00:00Z,30.6671,-87.9365,1015.917,11111222 
DISL,ioos:station:DISL:MHPA:1,2019-09-02T16:00:00Z,30.6671,-87.9365,1016.255639,11111222 
DISL,ioos:station:DISL:MHPA:1,2019-09-02T17:00:00Z,30.6671,-87.9365,1016.255639,11111222 
DISL,ioos:station:DISL:MHPA:1,2019-09-02T18:00:00Z,30.6671,-87.9365,1015.578361,11111222 
DISL,ioos:station:DISL:MHPA:1,2019-09-02T19:00:00Z,30.6671,-87.9365,1014.901083,11111222 
DISL,ioos:station:DISL:MHPA:1,2019-09-02T20:00:00Z,30.6671,-87.9365,1013.546527,11111222 
DISL,ioos:station:DISL:MHPA:1,2019-09-02T21:00:00Z,30.6671,-87.9365,1013.885166,11111222 
DISL,ioos:station:DISL:MHPA:1,2019-09-02T22:00:00Z,30.6671,-87.9365,1013.885166,11111222 
DISL,ioos:station:DISL:MHPA:1,2019-09-02T23:00:00Z,30.6671,-87.9365,1013.546527,11111222 
DISL,ioos:station:DISL:MHPA:1,2019-09-03T00:00:00Z,30.6671,-87.9365,1013.207888,11111222 
DISL,ioos:station:DISL:MHPA:1,2019-09-03T01:00:00Z,30.6671,-87.9365,1013.207888,11111222 
DISL,ioos:station:DISL:MHPA:1,2019-09-03T02:00:00Z,30.6671,-87.9365,1014.223805,11111222 
DISL,ioos:station:DISL:MHPA:1,2019-09-03T03:00:00Z,30.6671,-87.9365,1014.562444,11111222 
DISL,ioos:station:DISL:MHPA:1,2019-09-03T04:00:00Z,30.6671,-87.9365,1014.562444,11111222 
DISL,ioos:station:DISL:MHPA:1,2019-09-03T05:00:00Z,30.6671,-87.9365,1013.546527,11111222 
DISL,ioos:station:DISL:MHPA:1,2019-09-03T06:00:00Z,30.6671,-87.9365,1013.546527,11111222 
DISL,ioos:station:DISL:MHPA:1,2019-09-03T07:00:00Z,30.6671,-87.9365,1012.869249,11111222 
DISL,ioos:station:DISL:MHPA:1,2019-09-03T08:00:00Z,30.6671,-87.9365,1012.191971,11111222 
DISL,ioos:station:DISL:MHPA:1,2019-09-03T09:00:00Z,30.6671,-87.9365,1012.53061,11111222 
DISL,ioos:station:DISL:MHPA:1,2019-09-03T10:00:00Z,30.6671,-87.9365,1012.53061,11111222 
DISL,ioos:station:DISL:MHPA:1,2019-09-03T11:00:00Z,30.6671,-87.9365,1013.207888,11111222 
DISL,ioos:station:DISL:MHPA:1,2019-09-03T12:00:00Z,30.6671,-87.9365,1014.562444,11111222 
DISL,ioos:station:DISL:MHPA:1,2019-09-03T13:00:00Z,30.6671,-87.9365,1014.562444,11111222 
DISL,ioos:station:DISL:MHPA:1,2019-09-03T14:00:00Z,30.6671,-87.9365,1015.239722,11111222 
DISL,ioos:station:DISL:MHPA:1,2019-09-03T15:00:00Z,30.6671,-87.9365,1014.901083,11111222 
DISL,ioos:station:DISL:MHPA:1,2019-09-03T16:00:00Z,30.6671,-87.9365,1014.562444,11111222 
DISL,ioos:station:DISL:MHPA:1,2019-09-03T17:00:00Z,30.6671,-87.9365,1014.223805,11111222 
DISL,ioos:station:DISL:MHPA:1,2019-09-03T18:00:00Z,30.6671,-87.9365,1014.562444,11111222 
DISL,ioos:station:DISL:MHPA:1,2019-09-03T19:00:00Z,30.6671,-87.9365,1013.546527,11111222 
DISL,ioos:station:DISL:MHPA:1,2019-09-03T20:00:00Z,30.6671,-87.9365,1012.191971,11111222 
DISL,ioos:station:DISL:MHPA:1,2019-09-03T21:00:00Z,30.6671,-87.9365,1012.53061,11111222 
DISL,ioos:station:DISL:MHPA:1,2019-09-03T22:00:00Z,30.6671,-87.9365,1012.191971,11111222 
DISL,ioos:station:DISL:MHPA:1,2019-09-03T23:00:00Z,30.6671,-87.9365,1012.191971,11111222 
DISL,ioos:station:DISL:MHPA:1,2019-09-04T00:00:00Z,30.6671,-87.9365,1012.53061,11111222 
DISL,ioos:station:DISL:MHPA:1,2019-09-04T01:00:00Z,30.6671,-87.9365,1013.546527,11111222 
DISL,ioos:station:DISL:MHPA:1,2019-09-04T02:00:00Z,30.6671,-87.9365,1013.546527,11111222 
DISL,ioos:station:DISL:MHPA:1,2019-09-04T03:00:00Z,30.6671,-87.9365,1013.885166,11111222 
DISL,ioos:station:DISL:MHPA:1,2019-09-04T04:00:00Z,30.6671,-87.9365,1014.223805,11111222 
DISL,ioos:station:DISL:MHPA:1,2019-09-04T05:00:00Z,30.6671,-87.9365,1014.223805,11111222 
DISL,ioos:station:DISL:MHPA:1,2019-09-04T06:00:00Z,30.6671,-87.9365,1013.546527,11111222 
DISL,ioos:station:DISL:MHPA:1,2019-09-04T07:00:00Z,30.6671,-87.9365,1013.546527,11111222 
DISL,ioos:station:DISL:MHPA:1,2019-09-04T08:00:00Z,30.6671,-87.9365,1013.546527,11111222 
DISL,ioos:station:DISL:MHPA:1,2019-09-04T09:00:00Z,30.6671,-87.9365,1013.546527,11111222 
DISL,ioos:station:DISL:MHPA:1,2019-09-04T10:00:00Z,30.6671,-87.9365,1013.885166,11111222 
DISL,ioos:station:DISL:MHPA:1,2019-09-04T11:00:00Z,30.6671,-87.9365,1014.562444,11111222 
DISL,ioos:station:DISL:MHPA:1,2019-09-04T12:00:00Z,30.6671,-87.9365,1015.239722,11111222 
DISL,ioos:station:DISL:MHPA:1,2019-09-04T13:00:00Z,30.6671,-87.9365,1015.578361,11111222 
DISL,ioos:station:DISL:MHPA:1,2019-09-04T14:00:00Z,30.6671,-87.9365,1016.255639,11111222 
DISL,ioos:station:DISL:MHPA:1,2019-09-04T15:00:00Z,30.6671,-87.9365,1016.255639,11111222 
DISL,ioos:station:DISL:MHPA:1,2019-09-04T16:00:00Z,30.6671,-87.9365,1016.594278,11111222 
DISL,ioos:station:DISL:MHPA:1,2019-09-04T17:00:00Z,30.6671,-87.9365,1015.917,11111222 
DISL,ioos:station:DISL:MHPA:1,2019-09-04T18:00:00Z,30.6671,-87.9365,1014.901083,11111222 
DISL,ioos:station:DISL:MHPA:1,2019-09-04T19:00:00Z,30.6671,-87.9365,1014.223805,11111222 
DISL,ioos:station:DISL:MHPA:1,2019-09-04T20:00:00Z,30.6671,-87.9365,1014.223805,11111222 
DISL,ioos:station:DISL:MHPA:1,2019-09-04T21:00:00Z,30.6671,-87.9365,1013.207888,11111222 
DISL,ioos:station:DISL:MHPA:1,2019-09-04T22:00:00Z,30.6671,-87.9365,1013.885166,11111222 
DISL,ioos:station:DISL:MHPA:1,2019-09-04T23:00:00Z,30.6671,-87.9365,1013.546527,11111222 
DISL,ioos:station:DISL:MHPA:1,2019-09-05T00:00:00Z,30.6671,-87.9365,1013.546527,11111222 
DISL,ioos:station:DISL:MHPA:1,2019-09-05T01:00:00Z,30.6671,-87.9365,1014.223805,11111222 
DISL,ioos:station:DISL:MHPA:1,2019-09-05T02:00:00Z,30.6671,-87.9365,1014.562444,11111222 
DISL,ioos:station:DISL:MHPA:1,2019-09-05T03:00:00Z,30.6671,-87.9365,1015.578361,11111222 
DISL,ioos:station:DISL:MHPA:1,2019-09-05T04:00:00Z,30.6671,-87.9365,1015.578361,11111222 
DISL,ioos:station:DISL:MHPA:1,2019-09-05T05:00:00Z,30.6671,-87.9365,1015.578361,11111222 
DISL,ioos:station:DISL:MHPA:1,2019-09-05T06:00:00Z,30.6671,-87.9365,1015.239722,11111222 
DISL,ioos:station:DISL:MHPA:1,2019-09-05T07:00:00Z,30.6671,-87.9365,1014.562444,11111222 
DISL,ioos:station:DISL:MHPA:1,2019-09-05T08:00:00Z,30.6671,-87.9365,1015.239722,11111222 
DISL,ioos:station:DISL:MHPA:1,2019-09-05T09:00:00Z,30.6671,-87.9365,1015.578361,11111222 
DISL,ioos:station:DISL:MHPA:1,2019-09-05T10:00:00Z,30.6671,-87.9365,1015.917,11111222 
DISL,ioos:station:DISL:MHPA:1,2019-09-05T11:00:00Z,30.6671,-87.9365,1016.255639,11111222 
DISL,ioos:station:DISL:MHPA:1,2019-09-05T12:00:00Z,30.6671,-87.9365,1016.594278,11111222 
DISL,ioos:station:DISL:MHPA:1,2019-09-05T13:00:00Z,30.6671,-87.9365,1016.255639,11111222 
DISL,ioos:station:DISL:MHPA:1,2019-09-05T14:00:00Z,30.6671,-87.9365,1016.932917,11111222 
DISL,ioos:station:DISL:MHPA:1,2019-09-05T15:00:00Z,30.6671,-87.9365,1017.271556,11111222 
DISL,ioos:station:DISL:MHPA:1,2019-09-05T16:00:00Z,30.6671,-87.9365,1017.271556,11111222 
DISL,ioos:station:DISL:MHPA:1,2019-09-05T17:00:00Z,30.6671,-87.9365,1016.255639,11111222 
DISL,ioos:station:DISL:MHPA:1,2019-09-05T18:00:00Z,30.6671,-87.9365,1016.255639,11111222 
DISL,ioos:station:DISL:MHPA:1,2019-09-05T19:00:00Z,30.6671,-87.9365,1015.578361,11111222 
DISL,ioos:station:DISL:MHPA:1,2019-09-05T20:00:00Z,30.6671,-87.9365,1014.223805,11111222 
DISL,ioos:station:DISL:MHPA:1,2019-09-05T21:00:00Z,30.6671,-87.9365,1014.562444,11111222 
DISL,ioos:station:DISL:MHPA:1,2019-09-05T22:00:00Z,30.6671,-87.9365,1013.546527,11111222 
DISL,ioos:station:DISL:MHPA:1,2019-09-05T23:00:00Z,30.6671,-87.9365,1013.885166,11111222 
DISL,ioos:station:DISL:MHPA:1,2019-09-06T00:00:00Z,30.6671,-87.9365,1013.885166,11111222 
DISL,ioos:station:DISL:MHPA:1,2019-09-06T01:00:00Z,30.6671,-87.9365,1013.546527,11111222 
DISL,ioos:station:DISL:MHPA:1,2019-09-06T02:00:00Z,30.6671,-87.9365,1014.562444,11111222 
DISL,ioos:station:DISL:MHPA:1,2019-09-06T03:00:00Z,30.6671,-87.9365,1014.901083,11111222 
DISL,ioos:station:DISL:MHPA:1,2019-09-06T04:00:00Z,30.6671,-87.9365,1014.223805,11111222 
DISL,ioos:station:DISL:MHPA:1,2019-09-06T05:00:00Z,30.6671,-87.9365,1014.562444,11111222 
DISL,ioos:station:DISL:MHPA:1,2019-09-06T09:00:00Z,30.6671,-87.9365,1014.223805,11111222 
DISL,ioos:station:DISL:MHPA:1,2019-09-06T10:00:00Z,30.6671,-87.9365,1014.901083,11111222 
DISL,ioos:station:DISL:MHPA:1,2019-09-06T11:00:00Z,30.6671,-87.9365,1015.239722,11111222 
DISL,ioos:station:DISL:MHPA:1,2019-09-06T12:00:00Z,30.6671,-87.9365,1015.578361,11111222 
DISL,ioos:station:DISL:MHPA:1,2019-09-06T13:00:00Z,30.6671,-87.9365,1016.255639,11111222 
DISL,ioos:station:DISL:MHPA:1,2019-09-06T14:00:00Z,30.6671,-87.9365,1016.255639,11111222 
DISL,ioos:station:DISL:MHPA:1,2019-09-06T15:00:00Z,30.6671,-87.9365,1016.932917,11111222 
DISL,ioos:station:DISL:MHPA:1,2019-09-06T16:00:00Z,30.6671,-87.9365,1016.255639,11111222 
DISL,ioos:station:DISL:MHPA:1,2019-09-06T17:00:00Z,30.6671,-87.9365,1016.594278,11111222 
DISL,ioos:station:DISL:MHPA:1,2019-09-06T18:00:00Z,30.6671,-87.9365,1014.901083,11111222 
DISL,ioos:station:DISL:MHPA:1,2019-09-06T19:00:00Z,30.6671,-87.9365,1014.562444,11111222 
DISL,ioos:station:DISL:MHPA:1,2019-09-06T20:00:00Z,30.6671,-87.9365,1013.546527,11111222 
DISL,ioos:station:DISL:MHPA:1,2019-09-06T21:00:00Z,30.6671,-87.9365,1013.546527,11111222 
DISL,ioos:station:DISL:MHPA:1,2019-09-06T22:00:00Z,30.6671,-87.9365,1013.546527,11111222 
DISL,ioos:station:DISL:MHPA:1,2019-09-06T23:00:00Z,30.6671,-87.9365,1013.546527,11111222 
DISL,ioos:station:DISL:MHPA:1,2019-09-07T00:00:00Z,30.6671,-87.9365,1013.546527,11111222 
DISL,ioos:station:DISL:MHPA:1,2019-09-07T01:00:00Z,30.6671,-87.9365,1014.223805,11111222 
DISL,ioos:station:DISL:MHPA:1,2019-09-07T02:00:00Z,30.6671,-87.9365,1015.239722,11111222 
DISL,ioos:station:DISL:MHPA:1,2019-09-07T03:00:00Z,30.6671,-87.9365,1014.901083,11111222 
DISL,ioos:station:DISL:MHPA:1,2019-09-07T04:00:00Z,30.6671,-87.9365,1015.239722,11111222 
DISL,ioos:station:DISL:MHPA:1,2019-09-07T05:00:00Z,30.6671,-87.9365,1015.239722,11111222 
DISL,ioos:station:DISL:MHPA:1,2019-09-07T06:00:00Z,30.6671,-87.9365,1015.578361,11111222 
DISL,ioos:station:DISL:MHPA:1,2019-09-07T07:00:00Z,30.6671,-87.9365,1014.901083,11111222 
DISL,ioos:station:DISL:MHPA:1,2019-09-07T08:00:00Z,30.6671,-87.9365,1014.562444,11111222 
DISL,ioos:station:DISL:MHPA:1,2019-09-07T09:00:00Z,30.6671,-87.9365,1014.223805,11111222 
DISL,ioos:station:DISL:MHPA:1,2019-09-07T10:00:00Z,30.6671,-87.9365,1014.901083,11111222 
DISL,ioos:station:DISL:MHPA:1,2019-09-07T11:00:00Z,30.6671,-87.9365,1015.578361,11111222 
DISL,ioos:station:DISL:MHPA:1,2019-09-07T12:00:00Z,30.6671,-87.9365,1015.917,11111222 
DISL,ioos:station:DISL:MHPA:1,2019-09-07T13:00:00Z,30.6671,-87.9365,1016.255639,11111222 
DISL,ioos:station:DISL:MHPA:1,2019-09-07T14:00:00Z,30.6671,-87.9365,1016.594278,11111222 
DISL,ioos:station:DISL:MHPA:1,2019-09-07T15:00:00Z,30.6671,-87.9365,1017.271556,11111222 
DISL,ioos:station:DISL:MHPA:1,2019-09-07T16:00:00Z,30.6671,-87.9365,1016.255639,11111222 
DISL,ioos:station:DISL:MHPA:1,2019-09-07T17:00:00Z,30.6671,-87.9365,1016.255639,11111222 
DISL,ioos:station:DISL:MHPA:1,2019-09-07T18:00:00Z,30.6671,-87.9365,1015.578361,11111222 
DISL,ioos:station:DISL:MHPA:1,2019-09-07T19:00:00Z,30.6671,-87.9365,1014.562444,11111222 
DISL,ioos:station:DISL:MHPA:1,2019-09-07T20:00:00Z,30.6671,-87.9365,1013.546527,11111222 
DISL,ioos:station:DISL:MHPA:1,2019-09-07T21:00:00Z,30.6671,-87.9365,1013.885166,11111222 
DISL,ioos:station:DISL:MHPA:1,2019-09-07T22:00:00Z,30.6671,-87.9365,1013.207888,11111222 
DISL,ioos:station:DISL:MHPA:1,2019-09-07T23:00:00Z,30.6671,-87.9365,1013.546527,11111222 
DISL,ioos:station:DISL:MHPA:1,2019-09-08T00:00:00Z,30.6671,-87.9365,1013.207888,11111222 
DISL,ioos:station:DISL:MHPA:1,2019-09-08T01:00:00Z,30.6671,-87.9365,1013.885166,11111222 
DISL,ioos:station:DISL:MHPA:1,2019-09-08T02:00:00Z,30.6671,-87.9365,1014.562444,11111222 
DISL,ioos:station:DISL:MHPA:1,2019-09-08T03:00:00Z,30.6671,-87.9365,1014.901083,11111222 
DISL,ioos:station:DISL:MHPA:1,2019-09-08T04:00:00Z,30.6671,-87.9365,1014.901083,11111222 
DISL,ioos:station:DISL:MHPA:1,2019-09-08T05:00:00Z,30.6671,-87.9365,1014.901083,11111222 
DISL,ioos:station:DISL:MHPA:1,2019-09-08T06:00:00Z,30.6671,-87.9365,1014.901083,11111222 
DISL,ioos:station:DISL:MHPA:1,2019-09-08T07:00:00Z,30.6671,-87.9365,1013.885166,11111222 
DISL,ioos:station:DISL:MHPA:1,2019-09-08T08:00:00Z,30.6671,-87.9365,1014.562444,11111222 
DISL,ioos:station:DISL:MHPA:1,2019-09-08T09:00:00Z,30.6671,-87.9365,1013.885166,11111222 
DISL,ioos:station:DISL:MHPA:1,2019-09-08T10:00:00Z,30.6671,-87.9365,1014.562444,11111222 
DISL,ioos:station:DISL:MHPA:1,2019-09-08T11:00:00Z,30.6671,-87.9365,1014.901083,11111222 
DISL,ioos:station:DISL:MHPA:1,2019-09-08T12:00:00Z,30.6671,-87.9365,1015.239722,11111222 
DISL,ioos:station:DISL:MHPA:1,2019-09-08T13:00:00Z,30.6671,-87.9365,1016.255639,11111222 
DISL,ioos:station:DISL:MHPA:1,2019-09-08T14:00:00Z,30.6671,-87.9365,1016.594278,11111222 
DISL,ioos:station:DISL:MHPA:1,2019-09-08T15:00:00Z,30.6671,-87.9365,1016.932917,11111222 
DISL,ioos:station:DISL:MHPA:1,2019-09-08T16:00:00Z,30.6671,-87.9365,1016.932917,11111222 
DISL,ioos:station:DISL:MHPA:1,2019-09-08T17:00:00Z,30.6671,-87.9365,1016.594278,11111222 
DISL,ioos:station:DISL:MHPA:1,2019-09-08T18:00:00Z,30.6671,-87.9365,1015.917,11111222 
DISL,ioos:station:DISL:MHPA:1,2019-09-08T18:59:00Z,30.6671,-87.9365,1015.578361,11111222 
DISL,ioos:station:DISL:MHPA:1,2019-09-08T19:59:00Z,30.6671,-87.9365,1014.901083,11111222 
DISL,ioos:station:DISL:MHPA:1,2019-09-08T20:59:00Z,30.6671,-87.9365,1014.562444,11111222 
DISL,ioos:station:DISL:MHPA:1,2019-09-08T21:59:00Z,30.6671,-87.9365,1014.562444,11111222 
DISL,ioos:station:DISL:MHPA:1,2019-09-08T22:59:00Z,30.6671,-87.9365,1014.901083,11111222 
DISL,ioos:station:DISL:MHPA:1,2019-09-08T23:59:00Z,30.6671,-87.9365,1014.901083,11111222 
DISL,ioos:station:DISL:MHPA:1,2019-09-09T00:59:00Z,30.6671,-87.9365,1015.239722,11111222 
DISL,ioos:station:DISL:MHPA:1,2019-09-09T01:59:00Z,30.6671,-87.9365,1015.917,11111222 
DISL,ioos:station:DISL:MHPA:1,2019-09-09T02:59:00Z,30.6671,-87.9365,1016.594278,11111222 
DISL,ioos:station:DISL:MHPA:1,2019-09-09T03:59:00Z,30.6671,-87.9365,1016.594278,11111222 
DISL,ioos:station:DISL:MHPA:1,2019-09-09T04:59:00Z,30.6671,-87.9365,1016.594278,11111222 
DISL,ioos:station:DISL:MHPA:1,2019-09-09T05:59:00Z,30.6671,-87.9365,1016.594278,11111222 
DISL,ioos:station:DISL:MHPA:1,2019-09-09T06:59:00Z,30.6671,-87.9365,1016.594278,11111222 
DISL,ioos:station:DISL:MHPA:1,2019-09-09T07:59:00Z,30.6671,-87.9365,1016.594278,11111222 
DISL,ioos:station:DISL:MHPA:1,2019-09-09T08:59:00Z,30.6671,-87.9365,1016.255639,11111222 
DISL,ioos:station:DISL:MHPA:1,2019-09-09T09:59:00Z,30.6671,-87.9365,1017.610195,11111222 
DISL,ioos:station:DISL:MHPA:1,2019-09-09T10:59:00Z,30.6671,-87.9365,1017.610195,11111222 
DISL,ioos:station:DISL:MHPA:1,2019-09-09T11:59:00Z,30.6671,-87.9365,1018.287473,11111222 
DISL,ioos:station:DISL:MHPA:1,2019-09-09T12:59:00Z,30.6671,-87.9365,1018.964751,11111222 
DISL,ioos:station:DISL:MHPA:1,2019-09-09T13:59:00Z,30.6671,-87.9365,1018.964751,11111222 
DISL,ioos:station:DISL:MHPA:1,2019-09-09T14:59:00Z,30.6671,-87.9365,1019.30339,11111222 
DISL,ioos:station:DISL:MHPA:1,2019-09-09T15:59:00Z,30.6671,-87.9365,1019.980668,11111222 
DISL,ioos:station:DISL:MHPA:1,2019-09-09T16:59:00Z,30.6671,-87.9365,1019.30339,11111222 
DISL,ioos:station:DISL:MHPA:1,2019-09-09T17:59:00Z,30.6671,-87.9365,1019.30339,11111222 
DISL,ioos:station:DISL:MHPA:1,2019-09-09T18:59:00Z,30.6671,-87.9365,1017.948834,11111222 
DISL,ioos:station:DISL:MHPA:1,2019-09-09T22:59:00Z,30.6671,-87.9365,1017.610195,11111222 
DISL,ioos:station:DISL:MHPA:1,2019-09-09T23:59:00Z,30.6671,-87.9365,1017.948834,11111222 
DISL,ioos:station:DISL:MHPA:1,2019-09-10T00:59:00Z,30.6671,-87.9365,1018.626112,11111222 
DISL,ioos:station:DISL:MHPA:1,2019-09-10T01:59:00Z,30.6671,-87.9365,1018.964751,11111222 
DISL,ioos:station:DISL:MHPA:1,2019-09-10T02:59:00Z,30.6671,-87.9365,1019.642029,11111222 
DISL,ioos:station:DISL:MHPA:1,2019-09-10T03:59:00Z,30.6671,-87.9365,1020.319307,11111222 
DISL,ioos:station:DISL:MHPA:1,2019-09-10T04:59:00Z,30.6671,-87.9365,1019.980668,11111222 
DISL,ioos:station:DISL:MHPA:1,2019-09-10T05:59:00Z,30.6671,-87.9365,1019.642029,11111222 
DISL,ioos:station:DISL:MHPA:1,2019-09-10T06:59:00Z,30.6671,-87.9365,1020.319307,11111222 
DISL,ioos:station:DISL:MHPA:1,2019-09-10T07:59:00Z,30.6671,-87.9365,1019.980668,11111222 
DISL,ioos:station:DISL:MHPA:1,2019-09-10T08:59:00Z,30.6671,-87.9365,1019.30339,11111222 
DISL,ioos:station:DISL:MHPA:1,2019-09-10T09:59:00Z,30.6671,-87.9365,1019.642029,11111222 
DISL,ioos:station:DISL:MHPA:1,2019-09-10T10:59:00Z,30.6671,-87.9365,1020.657946,11111222 
DISL,ioos:station:DISL:MHPA:1,2019-09-10T11:59:00Z,30.6671,-87.9365,1021.335224,11111222 
DISL,ioos:station:DISL:MHPA:1,2019-09-10T12:59:00Z,30.6671,-87.9365,1021.335224,11111222 
DISL,ioos:station:DISL:MHPA:1,2019-09-10T13:59:00Z,30.6671,-87.9365,1022.68978,11111222 
DISL,ioos:station:DISL:MHPA:1,2019-09-10T14:59:00Z,30.6671,-87.9365,1021.673863,11111222 
DISL,ioos:station:DISL:MHPA:1,2019-09-10T15:59:00Z,30.6671,-87.9365,1022.351141,11111222 
DISL,ioos:station:DISL:MHPA:1,2019-09-10T16:59:00Z,30.6671,-87.9365,1022.012502,11111222 
DISL,ioos:station:DISL:MHPA:1,2019-09-10T17:59:00Z,30.6671,-87.9365,1021.673863,11111222 
DISL,ioos:station:DISL:MHPA:1,2019-09-10T18:59:00Z,30.6671,-87.9365,1021.335224,11111222 
DISL,ioos:station:DISL:MHPA:1,2019-09-10T19:59:00Z,30.6671,-87.9365,1020.996585,11111222 
DISL,ioos:station:DISL:MHPA:1,2019-09-10T20:59:00Z,30.6671,-87.9365,1020.657946,11111222 
DISL,ioos:station:DISL:MHPA:1,2019-09-10T21:59:00Z,30.6671,-87.9365,1019.980668,11111222 
DISL,ioos:station:DISL:MHPA:1,2019-09-10T22:59:00Z,30.6671,-87.9365,1020.319307,11111222 
DISL,ioos:station:DISL:MHPA:1,2019-09-10T23:59:00Z,30.6671,-87.9365,1019.980668,11111222 
DISL,ioos:station:DISL:MHPA:1,2019-09-11T00:59:00Z,30.6671,-87.9365,1020.657946,11111222 
DISL,ioos:station:DISL:MHPA:1,2019-09-11T01:59:00Z,30.6671,-87.9365,1021.673863,11111222 
DISL,ioos:station:DISL:MHPA:1,2019-09-11T02:59:00Z,30.6671,-87.9365,1022.012502,11111222 
DISL,ioos:station:DISL:MHPA:1,2019-09-11T03:59:00Z,30.6671,-87.9365,1022.351141,11111222 
DISL,ioos:station:DISL:MHPA:1,2019-09-11T04:59:00Z,30.6671,-87.9365,1021.673863,11111222 
DISL,ioos:station:DISL:MHPA:1,2019-09-11T05:59:00Z,30.6671,-87.9365,1020.996585,11111222 
DISL,ioos:station:DISL:MHPA:1,2019-09-11T06:59:00Z,30.6671,-87.9365,1021.335224,11111222 
DISL,ioos:station:DISL:MHPA:1,2019-09-11T07:59:00Z,30.6671,-87.9365,1021.335224,11111222 
DISL,ioos:station:DISL:MHPA:1,2019-09-11T08:59:00Z,30.6671,-87.9365,1021.335224,11111222 
DISL,ioos:station:DISL:MHPA:1,2019-09-11T09:59:00Z,30.6671,-87.9365,1020.996585,11111222 
DISL,ioos:station:DISL:MHPA:1,2019-09-11T10:59:00Z,30.6671,-87.9365,1020.996585,11111222 
DISL,ioos:station:DISL:MHPA:1,2019-09-11T11:59:00Z,30.6671,-87.9365,1022.012502,11111222 
DISL,ioos:station:DISL:MHPA:1,2019-09-11T12:59:00Z,30.6671,-87.9365,1022.351141,11111222 
DISL,ioos:station:DISL:MHPA:1,2019-09-11T13:59:00Z,30.6671,-87.9365,1023.028419,11111222 
DISL,ioos:station:DISL:MHPA:1,2019-09-11T14:59:00Z,30.6671,-87.9365,1023.367058,11111222 
DISL,ioos:station:DISL:MHPA:1,2019-09-11T15:59:00Z,30.6671,-87.9365,1023.367058,11111222 
DISL,ioos:station:DISL:MHPA:1,2019-09-11T16:59:00Z,30.6671,-87.9365,1022.351141,11111222 
DISL,ioos:station:DISL:MHPA:1,2019-09-11T17:59:00Z,30.6671,-87.9365,1022.012502,11111222 
DISL,ioos:station:DISL:MHPA:1,2019-09-11T18:59:00Z,30.6671,-87.9365,1020.996585,11111222 
DISL,ioos:station:DISL:MHPA:1,2019-09-11T19:59:00Z,30.6671,-87.9365,1019.980668,11111222 
DISL,ioos:station:DISL:MHPA:1,2019-09-11T20:59:00Z,30.6671,-87.9365,1019.30339,11111222 
DISL,ioos:station:DISL:MHPA:1,2019-09-11T21:59:00Z,30.6671,-87.9365,1019.642029,11111222 
DISL,ioos:station:DISL:MHPA:1,2019-09-11T22:59:00Z,30.6671,-87.9365,1019.30339,11111222 
DISL,ioos:station:DISL:MHPA:1,2019-09-11T23:59:00Z,30.6671,-87.9365,1018.287473,11111222 
DISL,ioos:station:DISL:MHPA:1,2019-09-12T00:59:00Z,30.6671,-87.9365,1018.964751,11111222 
DISL,ioos:station:DISL:MHPA:1,2019-09-12T01:59:00Z,30.6671,-87.9365,1019.980668,11111222 
DISL,ioos:station:DISL:MHPA:1,2019-09-12T02:59:00Z,30.6671,-87.9365,1019.642029,11111222 
DISL,ioos:station:DISL:MHPA:1,2019-09-12T03:59:00Z,30.6671,-87.9365,1019.642029,11111222 
DISL,ioos:station:DISL:MHPA:1,2019-09-12T04:59:00Z,30.6671,-87.9365,1019.980668,11111222 
DISL,ioos:station:DISL:MHPA:1,2019-09-12T05:59:00Z,30.6671,-87.9365,1018.964751,11111222 
DISL,ioos:station:DISL:MHPA:1,2019-09-12T06:59:00Z,30.6671,-87.9365,1019.30339,11111222 
DISL,ioos:station:DISL:MHPA:1,2019-09-12T07:59:00Z,30.6671,-87.9365,1018.626112,11111222 
DISL,ioos:station:DISL:MHPA:1,2019-09-12T08:59:00Z,30.6671,-87.9365,1017.948834,11111222 